ABY286 LTFJ-OMSJ

Flight info

Callsign ABY286
Flight time 4h 23m
Altitude 37000
Route ROXUK UN617 IRGAK UM855 TOMBI DCT SAFTA L324 LAKTO L560 SERMA L550 KARIK B411 DEESA Y415 LABAD/N0457F390 Y415 NIMAR DCT SITER DCT KUTNA DCT RIBOT M550 GOLGU DCT UKRAG/N0468F350 G783 ASPED Q308 ORKOB T891 NOLSU
Aircraft A20N/M-SDE2E3FGHIRWXY/LB1

Departure

Time 2026-04-20 16:25
Airport Istanbul Sabiha Gökçen International Airport (LTFJ)

Arrival

Time 2026-04-20 20:48
Airport Sharjah International Airport (OMSJ)
Time Latitude Longitude Altitude Speed Heading
2026-04-20 16:07 40.90574 29.31544 313 ft 0 kts 334°
2026-04-20 16:18 40.90557 29.31555 313 ft 4 kts 333°
2026-04-20 16:18 40.90533 29.31570 312 ft 4 kts 336°
2026-04-20 16:19 40.90508 29.31584 314 ft 4 kts 341°
2026-04-20 16:19 40.90492 29.31591 312 ft 1 kts 343°
2026-04-20 16:22 40.90500 29.31588 312 ft 2 kts 350°
2026-04-20 16:22 40.90513 29.31603 313 ft 4 kts 66°
2026-04-20 16:22 40.90530 29.31653 314 ft 8 kts 66°
2026-04-20 16:22 40.90561 29.31740 314 ft 13 kts 64°
2026-04-20 16:23 40.90604 29.31856 314 ft 16 kts 64°
2026-04-20 16:23 40.90655 29.31995 314 ft 18 kts 64°
2026-04-20 16:23 40.90714 29.32155 313 ft 19 kts 64°
2026-04-20 16:23 40.90713 29.32275 313 ft 10 kts 150°
2026-04-20 16:24 40.90642 29.32320 314 ft 13 kts 154°
2026-04-20 16:24 40.90589 29.32416 312 ft 12 kts 135°
2026-04-20 16:24 40.90514 29.32461 314 ft 13 kts 154°
2026-04-20 16:24 40.90432 29.32483 316 ft 12 kts 219°
2026-04-20 16:25 40.90371 29.32316 316 ft 44 kts 244°
2026-04-20 16:25 40.90142 29.31696 314 ft 106 kts 245°
2026-04-20 16:25 40.89739 29.30592 367 ft 151 kts 244°
2026-04-20 16:25 40.89298 29.29364 928 ft 149 kts 243°
2026-04-20 16:26 40.88838 29.28083 1409 ft 159 kts 244°
2026-04-20 16:26 40.88324 29.26654 1724 ft 185 kts 244°
2026-04-20 16:26 40.87735 29.25023 2054 ft 210 kts 244°
2026-04-20 16:26 40.87073 29.23175 2364 ft 237 kts 244°
2026-04-20 16:27 40.86357 29.21138 3081 ft 244 kts 243°
2026-04-20 16:27 40.85413 29.19229 3768 ft 252 kts 228°
2026-04-20 16:27 40.84012 29.17826 4535 ft 258 kts 204°
2026-04-20 16:27 40.82254 29.17474 5308 ft 266 kts 173°
2026-04-20 16:28 40.80462 29.18183 6148 ft 273 kts 160°
2026-04-20 16:28 40.78704 29.19182 6964 ft 278 kts 157°
2026-04-20 16:28 40.76927 29.20237 7728 ft 282 kts 157°
2026-04-20 16:28 40.75126 29.21301 8516 ft 286 kts 157°
2026-04-20 16:29 40.73291 29.22375 9323 ft 290 kts 158°
2026-04-20 16:29 40.71429 29.23456 10091 ft 295 kts 158°
2026-04-20 16:29 40.69496 29.24573 10495 ft 314 kts 158°
2026-04-20 16:29 40.67427 29.25765 10797 ft 334 kts 157°
2026-04-20 16:30 40.65232 29.27027 11088 ft 354 kts 157°
2026-04-20 16:30 40.62913 29.28359 11415 ft 371 kts 157°
2026-04-20 16:30 40.60525 29.29731 11993 ft 379 kts 157°
2026-04-20 16:30 40.58087 29.31131 12657 ft 385 kts 157°
2026-04-20 16:31 40.55620 29.32548 13341 ft 390 kts 157°
2026-04-20 16:31 40.53120 29.33983 13997 ft 394 kts 157°
2026-04-20 16:31 40.50591 29.35433 14625 ft 398 kts 157°
2026-04-20 16:31 40.48088 29.37053 15269 ft 403 kts 148°
2026-04-20 16:32 40.45827 29.39166 15917 ft 407 kts 142°
2026-04-20 16:32 40.43614 29.41466 16570 ft 410 kts 141°
2026-04-20 16:32 40.41383 29.43819 17234 ft 414 kts 141°
2026-04-20 16:32 40.39130 29.46191 17887 ft 417 kts 141°
2026-04-20 16:33 40.37598 29.47798 18311 ft 420 kts 142°
2026-04-20 16:33 40.34551 29.50983 19042 ft 425 kts 142°
2026-04-20 16:33 40.32225 29.53408 19558 ft 429 kts 142°
2026-04-20 16:33 40.29883 29.55847 20096 ft 432 kts 142°
2026-04-20 16:34 40.27514 29.58310 20635 ft 436 kts 142°
2026-04-20 16:34 40.25935 29.59951 20973 ft 438 kts 142°
2026-04-20 16:34 40.23501 29.62395 21508 ft 442 kts 146°
2026-04-20 16:34 40.20834 29.64425 22030 ft 444 kts 156°
2026-04-20 16:35 40.17915 29.65760 22565 ft 446 kts 167°
2026-04-20 16:35 40.14852 29.66541 23098 ft 449 kts 172°
2026-04-20 16:35 40.11756 29.67182 23606 ft 452 kts 172°
2026-04-20 16:35 40.08640 29.67810 24060 ft 456 kts 173°
2026-04-20 16:36 40.05492 29.68450 24522 ft 458 kts 172°
2026-04-20 16:36 40.02334 29.69099 24974 ft 461 kts 172°
2026-04-20 16:36 39.99193 29.69748 25385 ft 463 kts 172°
2026-04-20 16:36 39.95991 29.70413 25796 ft 466 kts 172°
2026-04-20 16:37 39.92780 29.71080 26218 ft 468 kts 172°
2026-04-20 16:37 39.89572 29.71916 26610 ft 473 kts 166°
2026-04-20 16:37 39.86447 29.73272 27003 ft 476 kts 161°
2026-04-20 16:37 39.83360 29.74879 27377 ft 479 kts 158°
2026-04-20 16:38 39.80291 29.76603 27761 ft 481 kts 157°
2026-04-20 16:38 39.77238 29.78372 28311 ft 480 kts 157°
2026-04-20 16:38 39.74196 29.80142 28864 ft 478 kts 157°
2026-04-20 16:38 39.71162 29.81896 29416 ft 476 kts 158°
2026-04-20 16:39 39.68132 29.83629 29941 ft 475 kts 158°
2026-04-20 16:39 39.65103 29.85347 30362 ft 475 kts 158°
2026-04-20 16:39 39.62076 29.87052 30797 ft 473 kts 158°
2026-04-20 16:39 39.59053 29.88748 31248 ft 471 kts 158°
2026-04-20 16:40 39.56048 29.90431 31683 ft 470 kts 159°
2026-04-20 16:40 39.53082 29.92089 32138 ft 467 kts 159°
2026-04-20 16:40 39.50152 29.93734 32566 ft 465 kts 159°
2026-04-20 16:40 39.47181 29.95410 32966 ft 464 kts 159°
2026-04-20 16:41 39.44221 29.97084 33364 ft 463 kts 159°
2026-04-20 16:41 39.41271 29.98753 33761 ft 461 kts 159°
2026-04-20 16:41 39.38374 30.00391 34109 ft 460 kts 159°
2026-04-20 16:41 39.35445 30.02045 34369 ft 460 kts 159°
2026-04-20 16:42 39.32509 30.03700 34583 ft 461 kts 159°
2026-04-20 16:42 39.29556 30.05362 34786 ft 462 kts 159°
2026-04-20 16:42 39.26612 30.07018 34998 ft 463 kts 159°
2026-04-20 16:42 39.23655 30.08678 35206 ft 464 kts 159°
2026-04-20 16:43 39.20693 30.10341 35416 ft 465 kts 159°
2026-04-20 16:43 39.17729 30.12004 35639 ft 465 kts 159°
2026-04-20 16:43 39.14760 30.13667 35823 ft 466 kts 159°
2026-04-20 16:43 39.11784 30.15333 36025 ft 467 kts 159°
2026-04-20 16:44 39.08804 30.17000 36211 ft 467 kts 159°
2026-04-20 16:44 39.05820 30.18668 36412 ft 468 kts 159°
2026-04-20 16:44 39.02832 30.20341 36602 ft 469 kts 159°
2026-04-20 16:44 38.99833 30.22020 36778 ft 469 kts 159°
2026-04-20 16:45 38.96835 30.23699 36943 ft 471 kts 159°
2026-04-20 16:45 38.93825 30.25382 36971 ft 472 kts 160°
2026-04-20 16:45 38.87801 30.28747 36971 ft 472 kts 160°
2026-04-20 16:46 38.81779 30.32104 36973 ft 472 kts 160°
2026-04-20 16:46 38.75748 30.35459 36970 ft 472 kts 160°
2026-04-20 16:47 38.69728 30.38802 36970 ft 472 kts 160°
2026-04-20 16:47 38.63742 30.42119 36975 ft 472 kts 160°
2026-04-20 16:48 38.57753 30.45432 36980 ft 472 kts 160°
2026-04-20 16:48 38.51718 30.48765 36969 ft 472 kts 160°
2026-04-20 16:49 38.45684 30.52090 36971 ft 472 kts 160°
2026-04-20 16:49 38.39651 30.55409 36972 ft 472 kts 160°
2026-04-20 16:50 38.33606 30.58730 36965 ft 473 kts 160°
2026-04-20 16:50 38.27452 30.61554 36975 ft 466 kts 172°
2026-04-20 16:51 38.21062 30.62770 36976 ft 463 kts 177°
2026-04-20 16:51 38.14691 30.63615 36965 ft 463 kts 178°
2026-04-20 16:52 38.08276 30.64404 36977 ft 463 kts 178°
2026-04-20 16:52 38.01854 30.65219 36972 ft 463 kts 178°
2026-04-20 16:53 37.95436 30.66077 36973 ft 464 kts 178°
2026-04-20 16:53 37.89017 30.67007 36970 ft 463 kts 178°
2026-04-20 16:54 37.82618 30.67851 36967 ft 462 kts 178°
2026-04-20 16:54 37.76199 30.68639 36969 ft 462 kts 179°
2026-04-20 16:55 37.69792 30.69420 36966 ft 463 kts 179°
2026-04-20 16:55 37.63431 30.70202 36962 ft 462 kts 179°
2026-04-20 16:56 37.57032 30.71007 36956 ft 462 kts 178°
2026-04-20 16:56 37.50632 30.71922 36937 ft 463 kts 178°
2026-04-20 16:57 37.44229 30.72873 36954 ft 464 kts 178°
2026-04-20 16:57 37.37804 30.73772 36949 ft 464 kts 179°
2026-04-20 16:58 37.31382 30.74575 36940 ft 463 kts 179°
2026-04-20 16:58 37.24969 30.75361 36933 ft 464 kts 179°
2026-04-20 16:59 37.18545 30.76156 36931 ft 464 kts 179°
2026-04-20 16:59 37.12112 30.76956 36918 ft 465 kts 179°
2026-04-20 17:00 37.02492 30.78153 36905 ft 465 kts 179°
2026-04-20 17:01 36.96043 30.78954 36910 ft 466 kts 179°
2026-04-20 17:01 36.89582 30.79630 36907 ft 463 kts 182°
2026-04-20 17:02 36.83141 30.79876 36908 ft 462 kts 184°
2026-04-20 17:02 36.76765 30.80024 36910 ft 461 kts 184°
2026-04-20 17:03 36.70340 30.80205 36911 ft 461 kts 184°
2026-04-20 17:03 36.63920 30.80417 36905 ft 462 kts 183°
2026-04-20 17:04 36.57487 30.80641 36916 ft 463 kts 183°
2026-04-20 17:04 36.51052 30.80865 36917 ft 463 kts 183°
2026-04-20 17:05 36.44602 30.81088 36921 ft 463 kts 183°
2026-04-20 17:05 36.38158 30.81308 36922 ft 463 kts 183°
2026-04-20 17:06 36.31742 30.81523 36925 ft 463 kts 183°
2026-04-20 17:06 36.25291 30.81737 36924 ft 463 kts 183°
2026-04-20 17:07 36.18846 30.81952 36928 ft 464 kts 183°
2026-04-20 17:07 36.12386 30.82167 36933 ft 464 kts 183°
2026-04-20 17:08 36.05930 30.82452 36937 ft 467 kts 179°
2026-04-20 17:08 35.99535 30.84165 36934 ft 473 kts 169°
2026-04-20 17:09 35.93208 30.86523 36941 ft 475 kts 167°
2026-04-20 17:09 35.86911 30.88995 36941 ft 475 kts 167°
2026-04-20 17:10 35.80660 30.91433 36938 ft 475 kts 167°
2026-04-20 17:10 35.74356 30.93860 36941 ft 475 kts 167°
2026-04-20 17:11 35.68010 30.96287 36943 ft 475 kts 167°
2026-04-20 17:11 35.61690 30.98699 36946 ft 475 kts 168°
2026-04-20 17:12 35.55431 31.01085 36949 ft 475 kts 168°
2026-04-20 17:12 35.49072 31.03505 36949 ft 475 kts 168°
2026-04-20 17:13 35.42761 31.05903 36952 ft 475 kts 168°
2026-04-20 17:13 35.36443 31.08301 36953 ft 475 kts 168°
2026-04-20 17:14 35.30133 31.10691 36959 ft 475 kts 168°
2026-04-20 17:14 35.23851 31.13067 36961 ft 475 kts 168°
2026-04-20 17:15 35.17529 31.15453 36962 ft 475 kts 168°
2026-04-20 17:15 35.11214 31.17834 36965 ft 475 kts 168°
2026-04-20 17:16 35.04956 31.20189 36965 ft 475 kts 168°
2026-04-20 17:16 34.98573 31.22588 36966 ft 475 kts 168°
2026-04-20 17:17 34.92292 31.24944 36959 ft 475 kts 168°
2026-04-20 17:17 34.85976 31.27310 36969 ft 474 kts 168°
2026-04-20 17:18 34.79727 31.29647 36938 ft 474 kts 168°
2026-04-20 17:18 34.73720 31.31889 36965 ft 474 kts 169°
2026-04-20 17:19 34.68564 31.33811 36967 ft 474 kts 169°
2026-04-20 17:19 34.62833 31.35944 36967 ft 474 kts 169°
2026-04-20 17:20 34.57722 31.37845 36968 ft 473 kts 169°
2026-04-20 17:20 34.51748 31.40063 36966 ft 474 kts 169°
2026-04-20 17:21 34.44494 31.42749 36971 ft 473 kts 169°
2026-04-20 17:21 34.38139 31.45102 36971 ft 473 kts 169°
2026-04-20 17:22 34.32912 31.47034 36974 ft 473 kts 169°
2026-04-20 17:22 34.26604 31.49362 36970 ft 473 kts 169°
2026-04-20 17:23 34.20308 31.51681 36974 ft 473 kts 169°
2026-04-20 17:23 34.14026 31.53992 36975 ft 473 kts 170°
2026-04-20 17:24 34.07724 31.56306 36977 ft 472 kts 170°
2026-04-20 17:24 34.01490 31.58592 36977 ft 472 kts 170°
2026-04-20 17:25 33.95172 31.60905 36974 ft 472 kts 170°
2026-04-20 17:25 33.88894 31.63199 36977 ft 472 kts 170°
2026-04-20 17:26 33.82617 31.65491 36973 ft 472 kts 170°
2026-04-20 17:26 33.76312 31.67788 36979 ft 472 kts 170°
2026-04-20 17:27 33.70016 31.70077 36972 ft 472 kts 170°
2026-04-20 17:27 33.63723 31.72360 36978 ft 472 kts 170°
2026-04-20 17:28 33.57434 31.74639 36976 ft 472 kts 170°
2026-04-20 17:28 33.51104 31.76931 36975 ft 472 kts 171°
2026-04-20 17:29 33.44853 31.79190 36979 ft 473 kts 171°
2026-04-20 17:29 33.38555 31.81461 36978 ft 472 kts 171°
2026-04-20 17:30 33.32261 31.83728 36978 ft 472 kts 171°
2026-04-20 17:30 33.25968 31.85991 36978 ft 472 kts 171°
2026-04-20 17:31 33.19674 31.88250 36982 ft 472 kts 171°
2026-04-20 17:31 33.13385 31.90504 36979 ft 472 kts 171°
2026-04-20 17:32 33.07087 31.92759 36982 ft 472 kts 171°
2026-04-20 17:32 33.00816 31.95000 36983 ft 473 kts 171°
2026-04-20 17:33 32.94512 31.97250 36986 ft 473 kts 171°
2026-04-20 17:33 32.88164 31.99512 36986 ft 473 kts 171°
2026-04-20 17:34 32.81899 32.01742 36986 ft 473 kts 171°
2026-04-20 17:34 32.75577 32.03989 36980 ft 473 kts 171°
2026-04-20 17:35 32.69263 32.06229 36990 ft 473 kts 171°
2026-04-20 17:35 32.63082 32.08943 36986 ft 486 kts 159°
2026-04-20 17:36 32.57341 32.13306 36991 ft 493 kts 152°
2026-04-20 17:36 32.51746 32.18055 36967 ft 495 kts 151°
2026-04-20 17:37 32.46174 32.22859 36996 ft 495 kts 151°
2026-04-20 17:37 32.40589 32.27629 36996 ft 495 kts 151°
2026-04-20 17:38 32.34990 32.32371 36998 ft 495 kts 151°
2026-04-20 17:38 32.29381 32.37104 36998 ft 495 kts 152°
2026-04-20 17:39 32.23771 32.41830 36996 ft 494 kts 152°
2026-04-20 17:39 32.18173 32.46540 36990 ft 495 kts 152°
2026-04-20 17:40 32.12559 32.51254 36999 ft 495 kts 152°
2026-04-20 17:40 32.06954 32.55952 36998 ft 495 kts 152°
2026-04-20 17:41 32.01371 32.60625 37005 ft 495 kts 152°
2026-04-20 17:41 31.95755 32.65319 37000 ft 494 kts 152°
2026-04-20 17:42 31.90146 32.70000 36990 ft 494 kts 152°
2026-04-20 17:42 31.84532 32.74676 37001 ft 495 kts 152°
2026-04-20 17:43 31.78910 32.79353 37001 ft 495 kts 152°
2026-04-20 17:43 31.73286 32.84024 37001 ft 495 kts 152°
2026-04-20 17:44 31.67659 32.88692 37002 ft 495 kts 152°
2026-04-20 17:44 31.62032 32.93352 37004 ft 495 kts 152°
2026-04-20 17:45 31.56432 32.97982 37001 ft 495 kts 152°
2026-04-20 17:45 31.50787 33.02643 37003 ft 496 kts 152°
2026-04-20 17:46 31.45151 33.07289 37000 ft 496 kts 152°
2026-04-20 17:46 31.39504 33.11938 37000 ft 496 kts 153°
2026-04-20 17:47 31.33680 33.16140 36982 ft 489 kts 159°
2026-04-20 17:47 31.27768 33.19939 36999 ft 487 kts 160°
2026-04-20 17:48 31.21787 33.23695 36998 ft 487 kts 160°
2026-04-20 17:48 31.15852 33.27413 36999 ft 487 kts 160°
2026-04-20 17:49 31.09949 33.31119 36998 ft 487 kts 160°
2026-04-20 17:49 31.03976 33.34871 36996 ft 487 kts 160°
2026-04-20 17:50 30.98022 33.38607 36996 ft 487 kts 160°
2026-04-20 17:50 30.92011 33.42372 36992 ft 487 kts 160°
2026-04-20 17:51 30.86047 33.46102 37001 ft 487 kts 160°
2026-04-20 17:51 30.80126 33.49800 37013 ft 487 kts 160°
2026-04-20 17:52 30.74116 33.53548 37007 ft 487 kts 160°
2026-04-20 17:52 30.68151 33.57264 37005 ft 487 kts 160°
2026-04-20 17:53 30.62174 33.60982 37005 ft 487 kts 160°
2026-04-20 17:53 30.56216 33.64681 37008 ft 487 kts 160°
2026-04-20 17:54 30.50241 33.68387 37006 ft 487 kts 160°
2026-04-20 17:54 30.44242 33.72102 36972 ft 486 kts 160°
2026-04-20 17:55 30.38275 33.75793 37006 ft 486 kts 160°
2026-04-20 17:55 30.32335 33.79461 37002 ft 486 kts 160°
2026-04-20 17:56 30.26378 33.83134 37004 ft 486 kts 160°
2026-04-20 17:56 30.20397 33.86818 36999 ft 486 kts 160°
2026-04-20 17:57 30.14449 33.90476 36971 ft 486 kts 161°
2026-04-20 17:57 30.08453 33.94158 36996 ft 487 kts 161°
2026-04-20 17:58 30.02488 33.97816 36997 ft 487 kts 161°
2026-04-20 17:58 29.96510 34.01478 36991 ft 487 kts 161°
2026-04-20 17:59 29.90521 34.05142 36992 ft 487 kts 161°
2026-04-20 17:59 29.84527 34.08803 36983 ft 487 kts 161°
2026-04-20 18:00 29.78558 34.12442 36992 ft 488 kts 161°
2026-04-20 18:00 29.72534 34.16111 36988 ft 489 kts 161°
2026-04-20 18:01 29.66748 34.20325 36988 ft 505 kts 146°
2026-04-20 18:01 29.64296 34.23267 36988 ft 518 kts 134°
2026-04-20 18:01 29.62364 34.26805 36987 ft 529 kts 120°
2026-04-20 18:01 29.61119 34.30810 36989 ft 537 kts 105°
2026-04-20 18:02 29.60643 34.35116 36990 ft 541 kts 94°
2026-04-20 18:02 29.60511 34.43768 36980 ft 544 kts 90°
2026-04-20 18:03 29.60515 34.52455 36971 ft 544 kts 97°
2026-04-20 18:03 29.59856 34.56696 36974 ft 538 kts 110°
2026-04-20 18:03 29.58492 34.60672 36974 ft 528 kts 124°
2026-04-20 18:03 29.56498 34.64110 36967 ft 515 kts 139°
2026-04-20 18:04 29.53961 34.67041 36968 ft 506 kts 146°
2026-04-20 18:04 29.48716 34.72307 36964 ft 510 kts 143°
2026-04-20 18:04 29.46365 34.75407 36936 ft 521 kts 132°
2026-04-20 18:05 29.43369 34.83110 36957 ft 539 kts 106°
2026-04-20 18:05 29.41987 34.91585 36947 ft 544 kts 101°
2026-04-20 18:06 29.41747 34.95938 36953 ft 546 kts 88°
2026-04-20 18:06 29.42220 35.00271 36941 ft 545 kts 76°
2026-04-20 18:06 29.43994 35.08642 36951 ft 546 kts 73°
2026-04-20 18:07 29.46022 35.17076 36956 ft 547 kts 72°
2026-04-20 18:07 29.48066 35.25578 36946 ft 546 kts 72°
2026-04-20 18:08 29.50022 35.33899 36997 ft 547 kts 73°
2026-04-20 18:08 29.51976 35.42315 36974 ft 544 kts 73°
2026-04-20 18:09 29.53923 35.50716 36960 ft 543 kts 73°
2026-04-20 18:09 29.55904 35.59081 36960 ft 546 kts 73°
2026-04-20 18:10 29.57906 35.67501 36958 ft 548 kts 73°
2026-04-20 18:10 29.59580 35.74578 36957 ft 548 kts 73°
2026-04-20 18:11 29.61512 35.83041 36948 ft 548 kts 76°
2026-04-20 18:11 29.62987 35.91615 36946 ft 548 kts 79°
2026-04-20 18:12 29.64315 36.00279 36937 ft 549 kts 79°
2026-04-20 18:12 29.65668 36.08930 36935 ft 548 kts 79°
2026-04-20 18:13 29.67045 36.17515 36940 ft 548 kts 79°
2026-04-20 18:13 29.68437 36.26141 36931 ft 548 kts 79°
2026-04-20 18:14 29.69821 36.34746 36943 ft 545 kts 79°
2026-04-20 18:14 29.71210 36.43357 36942 ft 545 kts 79°
2026-04-20 18:15 29.72592 36.51866 36914 ft 545 kts 79°
2026-04-20 18:15 29.73969 36.60384 36939 ft 545 kts 79°
2026-04-20 18:16 29.74724 36.69068 36940 ft 542 kts 97°
2026-04-20 18:16 29.73509 36.77551 36934 ft 538 kts 105°
2026-04-20 18:17 29.71849 36.85996 36937 ft 538 kts 107°
2026-04-20 18:17 29.70125 36.94350 36929 ft 536 kts 107°
2026-04-20 18:18 29.68420 37.02702 36935 ft 536 kts 107°
2026-04-20 18:18 29.66731 37.11074 36933 ft 537 kts 107°
2026-04-20 18:19 29.65061 37.19366 36930 ft 537 kts 107°
2026-04-20 18:19 29.63372 37.27727 36931 ft 538 kts 107°
2026-04-20 18:20 29.61662 37.36147 36929 ft 540 kts 107°
2026-04-20 18:20 29.59947 37.44562 36914 ft 541 kts 107°
2026-04-20 18:21 29.58233 37.52957 36919 ft 542 kts 107°
2026-04-20 18:21 29.56504 37.61390 36920 ft 542 kts 107°
2026-04-20 18:22 29.54766 37.69835 36917 ft 542 kts 108°
2026-04-20 18:22 29.53033 37.78232 36912 ft 543 kts 108°
2026-04-20 18:23 29.51277 37.86703 36909 ft 543 kts 108°
2026-04-20 18:23 29.49521 37.95151 36917 ft 543 kts 108°
2026-04-20 18:24 29.47832 38.03623 36918 ft 546 kts 106°
2026-04-20 18:24 29.46326 38.12164 36920 ft 547 kts 105°
2026-04-20 18:25 29.44834 38.20784 36901 ft 546 kts 105°
2026-04-20 18:25 29.43337 38.29276 36925 ft 547 kts 105°
2026-04-20 18:26 29.41821 38.37757 36922 ft 547 kts 105°
2026-04-20 18:26 29.40292 38.46255 36926 ft 547 kts 105°
2026-04-20 18:27 29.38736 38.54873 36953 ft 546 kts 106°
2026-04-20 18:27 29.37198 38.63370 36930 ft 542 kts 106°
2026-04-20 18:28 29.35666 38.71795 36932 ft 542 kts 106°
2026-04-20 18:28 29.34142 38.80143 36938 ft 542 kts 106°
2026-04-20 18:29 29.32592 38.88597 36938 ft 542 kts 106°
2026-04-20 18:29 29.30932 38.97024 36942 ft 540 kts 108°
2026-04-20 18:30 29.29170 39.05361 36941 ft 539 kts 108°
2026-04-20 18:30 29.27391 39.13722 36932 ft 539 kts 108°
2026-04-20 18:31 29.25633 39.22030 36949 ft 541 kts 108°
2026-04-20 18:31 29.23872 39.30374 36949 ft 541 kts 108°
2026-04-20 18:32 29.22105 39.38725 36944 ft 542 kts 108°
2026-04-20 18:32 29.20313 39.47159 36952 ft 543 kts 108°
2026-04-20 18:33 29.18521 39.55572 36953 ft 544 kts 108°
2026-04-20 18:33 29.16708 39.64050 36947 ft 545 kts 108°
2026-04-20 18:34 29.14910 39.72429 36953 ft 547 kts 108°
2026-04-20 18:34 29.13096 39.80859 36951 ft 547 kts 108°
2026-04-20 18:35 29.11159 39.89298 36960 ft 543 kts 117°
2026-04-20 18:35 29.07931 39.96926 36959 ft 534 kts 126°
2026-04-20 18:36 29.04308 40.04378 36941 ft 533 kts 127°
2026-04-20 18:36 29.00612 40.11766 36963 ft 534 kts 127°
2026-04-20 18:37 28.96975 40.19054 36966 ft 535 kts 127°
2026-04-20 18:37 28.93312 40.26429 36946 ft 535 kts 127°
2026-04-20 18:38 28.89611 40.33885 36976 ft 535 kts 127°
2026-04-20 18:38 28.85929 40.41289 36974 ft 535 kts 127°
2026-04-20 18:39 28.82288 40.48596 36950 ft 535 kts 127°
2026-04-20 18:39 28.78604 40.55975 36970 ft 535 kts 128°
2026-04-20 18:40 28.74905 40.63371 36978 ft 535 kts 128°
2026-04-20 18:40 28.71247 40.70671 36971 ft 535 kts 128°
2026-04-20 18:41 28.67519 40.78097 36972 ft 535 kts 128°
2026-04-20 18:41 28.63856 40.85382 36971 ft 535 kts 128°
2026-04-20 18:42 28.60176 40.92688 36962 ft 535 kts 128°
2026-04-20 18:42 28.56463 41.00044 36970 ft 535 kts 128°
2026-04-20 18:43 28.52744 41.07402 36969 ft 535 kts 128°
2026-04-20 18:43 28.49051 41.14693 36945 ft 534 kts 128°
2026-04-20 18:44 28.45335 41.22017 36966 ft 536 kts 128°
2026-04-20 18:44 28.41609 41.29348 36966 ft 536 kts 128°
2026-04-20 18:45 28.37830 41.36772 36955 ft 537 kts 129°
2026-04-20 18:45 28.34100 41.44082 36963 ft 539 kts 129°
2026-04-20 18:46 28.30342 41.51439 36966 ft 539 kts 129°
2026-04-20 18:46 28.26574 41.58805 36969 ft 539 kts 129°
2026-04-20 18:47 28.22798 41.66169 36966 ft 539 kts 129°
2026-04-20 18:47 28.19044 41.73477 36967 ft 539 kts 129°
2026-04-20 18:48 28.15265 41.80823 36959 ft 540 kts 129°
2026-04-20 18:48 28.11482 41.88164 36966 ft 540 kts 129°
2026-04-20 18:49 28.07724 41.95444 36972 ft 539 kts 129°
2026-04-20 18:49 28.03910 42.02817 36970 ft 539 kts 129°
2026-04-20 18:50 28.00130 42.10115 36968 ft 539 kts 129°
2026-04-20 18:50 27.96351 42.17397 36966 ft 539 kts 129°
2026-04-20 18:51 27.92532 42.24742 36963 ft 539 kts 129°
2026-04-20 18:51 27.88755 42.31994 36961 ft 539 kts 129°
2026-04-20 18:52 27.84938 42.39310 36956 ft 539 kts 129°
2026-04-20 18:52 27.81114 42.46630 36954 ft 539 kts 129°
2026-04-20 18:53 27.77286 42.53942 36949 ft 539 kts 129°
2026-04-20 18:53 27.73484 42.61193 36950 ft 539 kts 129°
2026-04-20 18:54 27.69658 42.68480 36946 ft 539 kts 129°
2026-04-20 18:54 27.65841 42.75736 36943 ft 539 kts 129°
2026-04-20 18:55 27.62637 42.81816 36945 ft 539 kts 129°
2026-04-20 18:55 27.58187 42.90245 36939 ft 540 kts 129°
2026-04-20 18:56 27.54336 42.97525 36942 ft 541 kts 129°
2026-04-20 18:56 27.50476 43.04815 36927 ft 541 kts 129°
2026-04-20 18:57 27.46616 43.12092 36938 ft 540 kts 129°
2026-04-20 18:57 27.43383 43.18178 36938 ft 540 kts 129°
2026-04-20 18:58 27.39549 43.25381 36925 ft 540 kts 129°
2026-04-20 18:58 27.35713 43.32578 36933 ft 538 kts 129°
2026-04-20 18:59 27.31841 43.39830 36933 ft 538 kts 129°
2026-04-20 18:59 27.27997 43.47017 36923 ft 537 kts 129°
2026-04-20 19:00 27.24150 43.54202 36933 ft 535 kts 129°
2026-04-20 19:00 27.20286 43.61402 36934 ft 535 kts 129°
2026-04-20 19:01 27.16437 43.68559 36924 ft 534 kts 129°
2026-04-20 19:01 27.12611 43.75668 36931 ft 533 kts 129°
2026-04-20 19:02 27.08773 43.82785 36919 ft 533 kts 129°
2026-04-20 19:02 27.04923 43.89911 36923 ft 532 kts 129°
2026-04-20 19:03 27.01096 43.96986 36922 ft 532 kts 129°
2026-04-20 19:03 26.97269 44.04048 36896 ft 532 kts 129°
2026-04-20 19:04 26.93434 44.11117 36922 ft 529 kts 129°
2026-04-20 19:04 26.89609 44.18154 36924 ft 528 kts 129°
2026-04-20 19:05 26.85789 44.25168 36925 ft 528 kts 129°
2026-04-20 19:05 26.81989 44.32138 36923 ft 526 kts 129°
2026-04-20 19:06 26.78166 44.39134 36931 ft 528 kts 129°
2026-04-20 19:06 26.74323 44.46156 36949 ft 528 kts 128°
2026-04-20 19:07 26.70522 44.53098 36936 ft 526 kts 129°
2026-04-20 19:07 26.66669 44.60120 36955 ft 526 kts 129°
2026-04-20 19:08 26.60955 44.70511 36959 ft 525 kts 128°
2026-04-20 19:09 26.57127 44.77458 36968 ft 525 kts 128°
2026-04-20 19:09 26.53310 44.84376 36972 ft 526 kts 128°
2026-04-20 19:10 26.49440 44.91380 36981 ft 526 kts 128°
2026-04-20 19:10 26.45614 44.98293 36980 ft 526 kts 128°
2026-04-20 19:11 26.41763 45.05240 36985 ft 526 kts 128°
2026-04-20 19:11 26.37889 45.12218 36977 ft 527 kts 128°
2026-04-20 19:12 26.34018 45.19180 37000 ft 529 kts 128°
2026-04-20 19:12 26.30134 45.26153 36999 ft 530 kts 128°
2026-04-20 19:13 26.26271 45.33082 36999 ft 530 kts 128°
2026-04-20 19:13 26.22337 45.40126 37005 ft 531 kts 128°
2026-04-20 19:14 26.18464 45.47047 36996 ft 532 kts 128°
2026-04-20 19:14 26.14529 45.54070 36988 ft 533 kts 128°
2026-04-20 19:15 26.10613 45.61049 36991 ft 533 kts 128°
2026-04-20 19:15 26.06669 45.68065 36982 ft 535 kts 128°
2026-04-20 19:16 26.02707 45.75105 36972 ft 535 kts 128°
2026-04-20 19:16 25.98754 45.82120 36947 ft 534 kts 128°
2026-04-20 19:17 25.94795 45.89131 36963 ft 536 kts 128°
2026-04-20 19:17 25.90831 45.96140 36955 ft 537 kts 128°
2026-04-20 19:18 25.86855 46.03162 36949 ft 535 kts 128°
2026-04-20 19:18 25.82903 46.10133 36944 ft 534 kts 128°
2026-04-20 19:19 25.78930 46.17125 36952 ft 534 kts 128°
2026-04-20 19:19 25.74987 46.24055 36946 ft 535 kts 128°
2026-04-20 19:20 25.71007 46.31040 36941 ft 535 kts 128°
2026-04-20 19:20 25.67019 46.38029 36946 ft 536 kts 128°
2026-04-20 19:21 25.63063 46.44951 36946 ft 536 kts 128°
2026-04-20 19:21 25.59059 46.51948 36946 ft 536 kts 128°
2026-04-20 19:22 25.55058 46.58928 36950 ft 537 kts 127°
2026-04-20 19:22 25.51042 46.65924 36950 ft 537 kts 127°
2026-04-20 19:23 25.47023 46.72916 36948 ft 537 kts 127°
2026-04-20 19:23 25.43006 46.79894 36947 ft 538 kts 127°
2026-04-20 19:24 25.39007 46.86828 36951 ft 539 kts 127°
2026-04-20 19:24 25.34968 46.93822 36952 ft 539 kts 128°
2026-04-20 19:25 25.30943 47.00781 36932 ft 539 kts 127°
2026-04-20 19:25 25.26873 47.07808 36947 ft 541 kts 127°
2026-04-20 19:26 25.22816 47.14803 36949 ft 541 kts 127°
2026-04-20 19:26 25.18747 47.21809 36947 ft 541 kts 127°
2026-04-20 19:27 25.14734 47.28708 36939 ft 541 kts 127°
2026-04-20 19:27 25.10655 47.35708 36933 ft 543 kts 127°
2026-04-20 19:28 25.06564 47.42719 36931 ft 543 kts 127°
2026-04-20 19:28 25.02482 47.49706 36905 ft 542 kts 127°
2026-04-20 19:29 24.98376 47.56723 36915 ft 543 kts 128°
2026-04-20 19:29 24.94279 47.63713 36916 ft 543 kts 128°
2026-04-20 19:30 24.90211 47.70646 36912 ft 542 kts 128°
2026-04-20 19:30 24.86080 47.77675 36906 ft 542 kts 127°
2026-04-20 19:31 24.82022 47.84568 36900 ft 542 kts 128°
2026-04-20 19:31 24.77885 47.91589 36901 ft 542 kts 128°
2026-04-20 19:32 24.73824 47.98468 36898 ft 541 kts 128°
2026-04-20 19:32 24.69681 48.05475 36895 ft 542 kts 128°
2026-04-20 19:33 24.65593 48.12380 36888 ft 541 kts 128°
2026-04-20 19:33 24.61488 48.19306 36885 ft 541 kts 128°
2026-04-20 19:34 24.57385 48.26216 36867 ft 541 kts 127°
2026-04-20 19:34 24.53267 48.33143 36878 ft 540 kts 127°
2026-04-20 19:35 24.49150 48.40058 36873 ft 540 kts 127°
2026-04-20 19:35 24.45036 48.46958 36866 ft 540 kts 128°
2026-04-20 19:36 24.40947 48.53805 36865 ft 541 kts 128°
2026-04-20 19:36 24.36785 48.60766 36856 ft 541 kts 128°
2026-04-20 19:37 24.32682 48.67619 36856 ft 541 kts 128°
2026-04-20 19:37 24.28577 48.74466 36857 ft 541 kts 128°
2026-04-20 19:38 24.24430 48.81372 36849 ft 541 kts 127°
2026-04-20 19:38 24.20298 48.88244 36845 ft 541 kts 127°
2026-04-20 19:38 24.18453 48.91834 36847 ft 545 kts 116°
2026-04-20 19:39 24.16916 48.95654 36847 ft 546 kts 115°
2026-04-20 19:39 24.14011 49.03374 36846 ft 547 kts 114°
2026-04-20 19:40 24.11227 49.11052 36850 ft 546 kts 113°
2026-04-20 19:40 24.08425 49.18760 36844 ft 546 kts 113°
2026-04-20 19:41 24.05567 49.26557 36843 ft 547 kts 114°
2026-04-20 19:41 24.02739 49.34236 36842 ft 547 kts 114°
2026-04-20 19:42 23.99875 49.41993 36830 ft 546 kts 113°
2026-04-20 19:42 23.97021 49.49709 36840 ft 547 kts 113°
2026-04-20 19:43 23.94170 49.57410 36837 ft 547 kts 114°
2026-04-20 19:43 23.91341 49.65037 36837 ft 547 kts 114°
2026-04-20 19:44 23.88464 49.72780 36833 ft 547 kts 114°
2026-04-20 19:44 23.85587 49.80505 36835 ft 547 kts 113°
2026-04-20 19:45 23.82714 49.88206 36836 ft 547 kts 114°
2026-04-20 19:45 23.79857 49.95852 36834 ft 547 kts 114°
2026-04-20 19:46 23.77447 50.02292 36833 ft 548 kts 113°
2026-04-20 19:46 23.74548 50.10026 36828 ft 549 kts 114°
2026-04-20 19:47 23.71670 50.17688 36828 ft 548 kts 113°
2026-04-20 19:47 23.68803 50.25311 36828 ft 549 kts 113°
2026-04-20 19:48 23.65854 50.33137 36835 ft 550 kts 113°
2026-04-20 19:48 23.62970 50.40776 36832 ft 550 kts 113°
2026-04-20 19:49 23.60060 50.48471 36820 ft 550 kts 113°
2026-04-20 19:49 23.57134 50.56196 36832 ft 550 kts 113°
2026-04-20 19:50 23.54206 50.63911 36835 ft 550 kts 113°
2026-04-20 19:50 23.51263 50.71654 36833 ft 551 kts 113°
2026-04-20 19:51 23.48331 50.79353 36838 ft 551 kts 113°
2026-04-20 19:51 23.45390 50.87063 36829 ft 551 kts 113°
2026-04-20 19:52 23.42448 50.94761 36838 ft 550 kts 113°
2026-04-20 19:52 23.39502 51.02458 36829 ft 550 kts 113°
2026-04-20 19:53 23.36556 51.10141 36832 ft 550 kts 113°
2026-04-20 19:53 23.33600 51.17836 36831 ft 550 kts 113°
2026-04-20 19:54 23.30664 51.25467 36824 ft 550 kts 113°
2026-04-20 19:54 23.27708 51.33135 36837 ft 549 kts 113°
2026-04-20 19:55 23.24746 51.40808 36821 ft 549 kts 113°
2026-04-20 19:55 23.22678 51.48750 36828 ft 545 kts 96°
2026-04-20 19:56 23.21783 51.56941 36817 ft 545 kts 92°
2026-04-20 19:56 23.21114 51.65133 36818 ft 544 kts 91°
2026-04-20 19:57 23.20462 51.73320 36826 ft 543 kts 91°
2026-04-20 19:57 23.19778 51.81508 36815 ft 544 kts 91°
2026-04-20 19:58 23.19073 51.89676 36815 ft 542 kts 92°
2026-04-20 19:58 23.18368 51.97769 36815 ft 541 kts 92°
2026-04-20 19:59 23.17656 52.05900 36822 ft 541 kts 91°
2026-04-20 19:59 23.16939 52.14039 36827 ft 539 kts 91°
2026-04-20 20:00 23.16221 52.22155 36814 ft 539 kts 91°
2026-04-20 20:00 23.15499 52.30273 36828 ft 539 kts 91°
2026-04-20 20:01 23.14938 52.38335 36823 ft 533 kts 83°
2026-04-20 20:01 23.15343 52.42294 36835 ft 523 kts 71°
2026-04-20 20:01 23.16262 52.46082 36827 ft 517 kts 66°
2026-04-20 20:02 23.18101 52.53670 36842 ft 524 kts 73°
2026-04-20 20:02 23.19299 52.61512 36824 ft 526 kts 75°
2026-04-20 20:03 23.20317 52.69378 36834 ft 526 kts 76°
2026-04-20 20:03 23.21285 52.77277 36831 ft 526 kts 76°
2026-04-20 20:04 23.22251 52.85165 36845 ft 525 kts 76°
2026-04-20 20:04 23.23213 52.92974 36834 ft 524 kts 76°
2026-04-20 20:05 23.24183 53.00841 36834 ft 524 kts 76°
2026-04-20 20:05 23.25146 53.08687 36837 ft 523 kts 76°
2026-04-20 20:06 23.26105 53.16530 36837 ft 523 kts 76°
2026-04-20 20:06 23.27061 53.24381 36836 ft 523 kts 76°
2026-04-20 20:07 23.28011 53.32221 36842 ft 522 kts 76°
2026-04-20 20:07 23.28955 53.40045 36846 ft 521 kts 76°
2026-04-20 20:08 23.29896 53.47873 36847 ft 521 kts 76°
2026-04-20 20:08 23.30831 53.55692 36847 ft 521 kts 76°
2026-04-20 20:09 23.31757 53.63461 36848 ft 521 kts 76°
2026-04-20 20:09 23.32686 53.71295 36849 ft 522 kts 76°
2026-04-20 20:10 23.33611 53.79128 36848 ft 521 kts 76°
2026-04-20 20:10 23.34528 53.86934 36851 ft 520 kts 76°
2026-04-20 20:11 23.35442 53.94740 36851 ft 519 kts 76°
2026-04-20 20:11 23.36351 54.02533 36853 ft 519 kts 76°
2026-04-20 20:12 23.37254 54.10318 36847 ft 518 kts 76°
2026-04-20 20:12 23.38148 54.18050 36848 ft 517 kts 76°
2026-04-20 20:13 23.39488 54.29709 36844 ft 517 kts 76°
2026-04-20 20:13 23.40374 54.37461 36841 ft 516 kts 76°
2026-04-20 20:14 23.41258 54.45230 36856 ft 516 kts 76°
2026-04-20 20:14 23.42137 54.52981 36852 ft 516 kts 77°
2026-04-20 20:15 23.43012 54.60742 36847 ft 516 kts 77°
2026-04-20 20:15 23.43877 54.68452 36851 ft 516 kts 77°
2026-04-20 20:16 23.44743 54.76206 36846 ft 516 kts 77°
2026-04-20 20:16 23.45604 54.83950 36845 ft 514 kts 77°
2026-04-20 20:17 23.46459 54.91681 36843 ft 514 kts 77°
2026-04-20 20:17 23.47312 54.99410 36843 ft 514 kts 77°
2026-04-20 20:18 23.48161 55.07139 36846 ft 513 kts 77°
2026-04-20 20:18 23.49003 55.14850 36845 ft 513 kts 77°
2026-04-20 20:19 23.49843 55.22580 36846 ft 513 kts 77°
2026-04-20 20:19 23.51252 55.30096 36849 ft 497 kts 61°
2026-04-20 20:20 23.52720 55.33454 36849 ft 484 kts 50°
2026-04-20 20:20 23.54676 55.36358 36850 ft 469 kts 38°
2026-04-20 20:20 23.57003 55.38708 36849 ft 455 kts 27°
2026-04-20 20:20 23.59641 55.40509 36847 ft 441 kts 17°
2026-04-20 20:21 23.65311 55.42696 36851 ft 429 kts
2026-04-20 20:21 23.71070 55.44382 36851 ft 428 kts
2026-04-20 20:22 23.76833 55.46017 36855 ft 429 kts
2026-04-20 20:22 23.82616 55.47699 36853 ft 430 kts
2026-04-20 20:23 23.88394 55.49411 36852 ft 430 kts
2026-04-20 20:23 23.94176 55.51131 36853 ft 430 kts
2026-04-20 20:24 23.99884 55.53251 36854 ft 443 kts 17°
2026-04-20 20:24 24.02569 55.54986 36852 ft 454 kts 27°
2026-04-20 20:24 24.05065 55.57138 36851 ft 459 kts 31°
2026-04-20 20:25 24.09885 55.61785 36854 ft 463 kts 33°
2026-04-20 20:25 24.14618 55.66560 36856 ft 463 kts 34°
2026-04-20 20:26 24.19363 55.71330 36863 ft 463 kts 33°
2026-04-20 20:26 24.24098 55.76051 36866 ft 463 kts 33°
2026-04-20 20:27 24.28865 55.80789 36863 ft 462 kts 33°
2026-04-20 20:27 24.33584 55.85483 36871 ft 462 kts 34°
2026-04-20 20:28 24.38343 55.90222 36877 ft 463 kts 34°
2026-04-20 20:28 24.43124 55.94986 36855 ft 464 kts 34°
2026-04-20 20:29 24.45503 55.97362 36367 ft 461 kts 34°
2026-04-20 20:29 24.47874 55.99730 35359 ft 462 kts 36°
2026-04-20 20:29 24.49458 56.01309 34632 ft 466 kts 37°
2026-04-20 20:29 24.52660 56.04500 33057 ft 472 kts 38°
2026-04-20 20:30 24.55093 56.06933 31784 ft 476 kts 39°
2026-04-20 20:30 24.57558 56.09406 30480 ft 481 kts 39°
2026-04-20 20:30 24.60042 56.11900 29079 ft 487 kts 39°
2026-04-20 20:30 24.62535 56.14404 27861 ft 485 kts 40°
2026-04-20 20:31 24.64186 56.16061 27140 ft 483 kts 40°
2026-04-20 20:31 24.66663 56.18545 26052 ft 479 kts 40°
2026-04-20 20:31 24.69172 56.20946 24846 ft 476 kts 35°
2026-04-20 20:31 24.71946 56.22949 23377 ft 478 kts 25°
2026-04-20 20:32 24.75027 56.24338 21647 ft 479 kts 13°
2026-04-20 20:32 24.78276 56.24951 20231 ft 470 kts
2026-04-20 20:32 24.81499 56.24771 19069 ft 456 kts 348°
2026-04-20 20:32 24.84516 56.23881 17850 ft 445 kts 336°
2026-04-20 20:33 24.87225 56.22345 16623 ft 431 kts 325°
2026-04-20 20:33 24.89450 56.20205 15423 ft 420 kts 311°
2026-04-20 20:33 24.91272 56.17710 14159 ft 414 kts 307°
2026-04-20 20:33 24.92941 56.15219 13178 ft 403 kts 307°
2026-04-20 20:34 24.94551 56.12784 12454 ft 384 kts 307°
2026-04-20 20:34 24.96090 56.10454 11826 ft 368 kts 307°
2026-04-20 20:34 24.97569 56.08216 11209 ft 356 kts 307°
2026-04-20 20:34 24.99028 56.06015 10668 ft 352 kts 307°
2026-04-20 20:35 25.00416 56.03932 10574 ft 323 kts 307°
2026-04-20 20:35 25.01687 56.02018 10500 ft 297 kts 307°
2026-04-20 20:35 25.02863 56.00247 10394 ft 277 kts 308°
2026-04-20 20:35 25.03974 55.98578 10256 ft 262 kts 308°
2026-04-20 20:36 25.05043 55.96975 10142 ft 260 kts 308°
2026-04-20 20:36 25.06126 55.95362 10022 ft 263 kts 308°
2026-04-20 20:36 25.07221 55.93739 9798 ft 258 kts 308°
2026-04-20 20:36 25.08271 55.92184 9490 ft 249 kts 308°
2026-04-20 20:37 25.09455 55.90805 8849 ft 250 kts 329°
2026-04-20 20:37 25.11068 55.90266 8606 ft 238 kts 359°
2026-04-20 20:37 25.12606 55.90729 8507 ft 235 kts 30°
2026-04-20 20:37 25.13708 55.92055 8506 ft 240 kts 61°
2026-04-20 20:38 25.14037 55.93871 8507 ft 248 kts 92°
2026-04-20 20:38 25.13595 55.95732 8511 ft 254 kts 109°
2026-04-20 20:38 25.12599 55.97338 8512 ft 258 kts 134°
2026-04-20 20:38 25.11216 55.98616 8497 ft 259 kts 150°
2026-04-20 20:39 25.09523 55.99220 8281 ft 256 kts 177°
2026-04-20 20:39 25.07788 55.98826 7746 ft 259 kts 213°
2026-04-20 20:39 25.06574 55.97408 7281 ft 255 kts 249°
2026-04-20 20:39 25.06279 55.95532 6900 ft 247 kts 281°
2026-04-20 20:40 25.06862 55.93800 6547 ft 241 kts 305°
2026-04-20 20:40 25.07837 55.92309 6233 ft 238 kts 310°
2026-04-20 20:40 25.08825 55.90842 5897 ft 238 kts 307°
2026-04-20 20:40 25.09786 55.89366 5637 ft 236 kts 308°
2026-04-20 20:41 25.10738 55.87911 5421 ft 237 kts 308°
2026-04-20 20:41 25.11696 55.86428 5273 ft 237 kts 307°
2026-04-20 20:41 25.12630 55.84928 5264 ft 238 kts 306°
2026-04-20 20:41 25.13545 55.83409 5263 ft 238 kts 306°
2026-04-20 20:42 25.14468 55.81895 5264 ft 238 kts 306°
2026-04-20 20:42 25.15399 55.80388 5265 ft 238 kts 306°
2026-04-20 20:42 25.16332 55.78881 5263 ft 238 kts 306°
2026-04-20 20:42 25.17265 55.77368 5129 ft 239 kts 306°
2026-04-20 20:43 25.18202 55.75847 4856 ft 239 kts 306°
2026-04-20 20:43 25.19136 55.74332 4491 ft 240 kts 306°
2026-04-20 20:43 25.20078 55.72805 4124 ft 240 kts 306°
2026-04-20 20:43 25.21016 55.71283 3778 ft 240 kts 306°
2026-04-20 20:44 25.21950 55.69766 3465 ft 237 kts 306°
2026-04-20 20:44 25.22871 55.68271 3173 ft 232 kts 305°
2026-04-20 20:44 25.23762 55.66825 2893 ft 223 kts 305°
2026-04-20 20:44 25.24611 55.65448 2625 ft 216 kts 305°
2026-04-20 20:45 25.25434 55.64111 2397 ft 203 kts 305°
2026-04-20 20:45 25.26184 55.62891 2136 ft 181 kts 305°
2026-04-20 20:45 25.26857 55.61799 1891 ft 163 kts 305°
2026-04-20 20:45 25.27488 55.60819 1665 ft 150 kts 307°
2026-04-20 20:46 25.28097 55.59944 1428 ft 139 kts 308°
2026-04-20 20:46 25.28684 55.59116 1234 ft 135 kts 308°
2026-04-20 20:46 25.29261 55.58291 1118 ft 136 kts 307°
2026-04-20 20:46 25.29821 55.57452 960 ft 136 kts 304°
2026-04-20 20:47 25.30339 55.56579 780 ft 136 kts 301°
2026-04-20 20:47 25.30835 55.55689 637 ft 136 kts 301°
2026-04-20 20:47 25.31336 55.54816 464 ft 136 kts 303°
2026-04-20 20:47 25.31856 55.53941 294 ft 135 kts 301°
2026-04-20 20:48 25.32357 55.53061 134 ft 133 kts 301°
2026-04-20 20:48 25.32788 55.52304 116 ft 92 kts 302°
2026-04-20 20:48 25.33084 55.51797 122 ft 60 kts 302°
2026-04-20 20:48 25.33193 55.51488 119 ft 41 kts 270°
2026-04-20 20:49 25.33207 55.51222 119 ft 27 kts 273°
2026-04-20 20:49 25.33251 55.51044 117 ft 24 kts 307°
2026-04-20 20:49 25.33286 55.50894 118 ft 18 kts 225°
2026-04-20 20:49 25.33179 55.50842 116 ft 17 kts 153°
2026-04-20 20:50 25.33105 55.50952 117 ft 19 kts 122°
2026-04-20 20:50 25.33028 55.51081 117 ft 21 kts 123°
2026-04-20 20:50 25.32948 55.51220 115 ft 22 kts 121°
2026-04-20 20:50 25.32891 55.51249 117 ft 6 kts 219°
2026-04-20 20:51 25.32847 55.51211 116 ft 10 kts 218°
2026-04-20 20:51 25.32778 55.51165 118 ft 14 kts 211°
2026-04-20 20:51 25.32686 55.51104 115 ft 15 kts 211°
2026-04-20 20:51 25.32652 55.51105 115 ft 4 kts 140°
2026-04-20 20:52 25.32630 55.51139 116 ft 6 kts 120°
2026-04-20 20:52 25.32615 55.51166 115 ft 0 kts 122°
2026-04-20 20:52 25.32614 55.51168 116 ft 0 kts 122°